| time (UTC) | temp F | wind direction | speed MPH | gust MPH | rain 1hr in | rain 24hr in | rain mn in | humidity % | barometer mb |
| 20260906010500 | 41 | 6 | 12.0 | 20.0 | 0.00 | 0.00 | 0.00 | 77 | 1006.1 |
| 20260906004501 | 40 | 359 | 12.0 | 19.0 | 0.00 | 0.00 | 0.00 | 80 | 1005.5 |
| 20260906002458 | 40 | 7 | 12.0 | 19.0 | 0.00 | 0.00 | 0.00 | 79 | 1005.5 |
| 20260906000129 | 40 | 6 | 13.0 | 21.0 | 0.00 | 0.00 | 0.00 | 80 | 1005.6 |
| 20260905234459 | 40 | 359 | 13.0 | 21.0 | 0.00 | 0.00 | 0.00 | 80 | 1005.6 |
| 20260905232458 | 40 | 1 | 14.0 | 22.0 | 0.00 | 0.00 | 0.00 | 80 | 1005.5 |
| 20260905230459 | 40 | 358 | 14.0 | 26.0 | 0.00 | 0.00 | 0.00 | 80 | 1005.4 |
| 20260905224457 | 40 | 358 | 14.0 | 22.0 | 0.00 | 0.00 | 0.00 | 79 | 1005.4 |
| 20260905222458 | 40 | 359 | 13.0 | 20.0 | 0.00 | 0.00 | 0.00 | 78 | 1005.5 |
| 20260905220459 | 40 | 1 | 13.0 | 22.0 | 0.00 | 0.00 | 0.00 | 76 | 1005.3 |
| 20260905214459 | 41 | 4 | 14.0 | 23.0 | 0.00 | 0.00 | 0.00 | 75 | 1005.0 |
| 20260905212128 | 41 | 360 | 13.0 | 19.0 | 0.00 | 0.00 | 0.00 | 72 | 1004.9 |
| 20260905210128 | 42 | 358 | 10.0 | 17.0 | 0.00 | 0.00 | 0.00 | 71 | 1004.7 |
| 20260905204457 | 42 | 13 | 11.0 | 18.0 | 0.00 | 0.00 | 0.00 | 72 | 1004.4 |
| 20260905202458 | 42 | 3 | 13.0 | 21.0 | 0.00 | 0.00 | 0.00 | 72 | 1004.3 |
| 20260905200459 | 42 | 2 | 13.0 | 20.0 | 0.00 | 0.00 | 0.00 | 73 | 1004.2 |
| 20260905194128 | 42 | 6 | 11.0 | 16.0 | 0.00 | 0.00 | 0.00 | 75 | 1004.1 |
| 20260905192456 | 41 | 5 | 9.0 | 15.0 | 0.00 | 0.00 | 0.00 | 78 | 1004.0 |
| 20260905190456 | 41 | 11 | 12.0 | 19.0 | 0.00 | 0.00 | 0.00 | 83 | 1004.0 |
| 20260905184458 | 41 | 19 | 18.0 | 29.0 | 0.00 | 0.00 | 0.00 | 81 | 1003.9 |
| 20260905182457 | 42 | 3 | 15.0 | 24.0 | 0.00 | 0.00 | 0.00 | 79 | 1003.8 |
| 20260905174454 | 44 | 27 | 18.0 | 28.0 | 0.00 | 0.00 | 0.00 | 69 | 1003.3 |
| 20260905172456 | 44 | 16 | 15.0 | 24.0 | 0.00 | 0.00 | 0.00 | 68 | 1003.1 |
| 20260905170457 | 43 | 11 | 14.0 | 27.0 | 0.00 | 0.00 | 0.00 | 73 | 1003.0 |
| 20260905164458 | 44 | 20 | 13.0 | 22.0 | 0.00 | 0.00 | 0.00 | 67 | 1002.8 |
| 20260905162129 | 45 | 15 | 16.0 | 26.0 | 0.00 | 0.00 | 0.00 | 66 | 1002.7 |
| 20260905160456 | 45 | 17 | 18.0 | 30.0 | 0.00 | 0.00 | 0.00 | 69 | 1002.7 |
| 20260905154456 | 45 | 19 | 15.0 | 20.0 | 0.00 | 0.00 | 0.00 | 70 | 1002.6 |
| 20260905152457 | 45 | 20 | 16.0 | 22.0 | 0.00 | 0.00 | 0.00 | 71 | 1002.3 |
| 20260905150456 | 45 | 25 | 20.0 | 31.0 | 0.00 | 0.00 | 0.00 | 74 | 1002.3 |
| 20260905144457 | 45 | 18 | 19.0 | 30.0 | 0.00 | 0.00 | 0.00 | 69 | 1002.0 |
| 20260905142457 | 44 | 6 | 14.0 | 22.0 | 0.00 | 0.00 | 0.00 | 75 | 1001.9 |
| 20260905140456 | 44 | 359 | 13.0 | 24.0 | 0.00 | 0.00 | 0.00 | 76 | 1001.8 |
| 20260905134456 | 45 | 5 | 13.0 | 21.0 | 0.00 | 0.00 | 0.00 | 75 | 1001.7 |
| 20260905132454 | 45 | 13 | 14.0 | 20.0 | 0.00 | 0.00 | 0.00 | 75 | 1001.7 |
| 20260905130501 | 45 | 10 | 16.0 | 25.0 | 0.00 | 0.00 | 0.00 | 71 | 1001.7 |
| 20260905124456 | 45 | 18 | 15.0 | 23.0 | 0.00 | 0.00 | 0.00 | 69 | 1001.4 |
| 20260905122127 | 46 | 29 | 17.0 | 27.0 | 0.00 | 0.00 | 0.00 | 68 | 1001.6 |
| 20260905120456 | 46 | 28 | 19.0 | 26.0 | 0.00 | 0.00 | 0.00 | 66 | 1001.4 |
| 20260905114457 | 46 | 23 | 17.0 | 25.0 | 0.00 | 0.00 | 0.00 | 64 | 1001.4 |
| 20260905112457 | 46 | 26 | 15.0 | 22.0 | 0.00 | 0.00 | 0.00 | 66 | 1001.2 |
| 20260905110455 | 45 | 38 | 16.0 | 22.0 | 0.00 | 0.00 | 0.00 | 69 | 1001.2 |
| 20260905104457 | 46 | 19 | 17.0 | 23.0 | 0.00 | 0.00 | 0.00 | 68 | 1001.0 |
| 20260905102457 | 45 | 17 | 14.0 | 21.0 | 0.00 | 0.00 | 0.00 | 67 | 1000.8 |
| 20260905094455 | 44 | 8 | 14.0 | 22.0 | 0.00 | 0.00 | 0.00 | 72 | 1001.0 |
| 20260905092456 | 44 | 21 | 14.0 | 23.0 | 0.00 | 0.00 | 0.00 | 76 | 1000.9 |
| 20260905090457 | 44 | 18 | 16.0 | 25.0 | 0.00 | 0.00 | 0.00 | 75 | 1000.8 |
| 20260905084126 | 44 | 19 | 14.0 | 22.0 | 0.00 | 0.00 | 0.00 | 79 | 1000.9 |
| 20260905080454 | 43 | 19 | 15.0 | 21.0 | 0.00 | 0.00 | 0.00 | 82 | 1000.9 |
| 20260905074453 | 43 | 20 | 15.0 | 23.0 | 0.00 | 0.00 | 0.00 | 83 | 1000.8 |
| 20260905064126 | 43 | 26 | 12.0 | 19.0 | 0.00 | 0.00 | 0.00 | 89 | 1000.8 |
| 20260905062125 | 43 | 24 | 12.0 | 23.0 | 0.00 | 0.00 | 0.00 | 90 | 1000.8 |
| 20260905060455 | 42 | 25 | 15.0 | 20.0 | 0.00 | 0.00 | 0.00 | 91 | 1000.8 |
| 20260905054453 | 42 | 20 | 11.0 | 16.0 | 0.00 | 0.00 | 0.00 | 93 | 1000.9 |
| 20260905050454 | 41 | 11 | 8.0 | 14.0 | 0.00 | 0.00 | 0.00 | 95 | 1001.0 |
| 20260905044456 | 41 | 8 | 7.0 | 13.0 | 0.00 | 0.00 | 0.00 | 95 | 1001.1 |
| 20260905042455 | 41 | 13 | 8.0 | 14.0 | 0.00 | 0.00 | 0.00 | 96 | 1001.1 |
| 20260905040459 | 41 | 3 | 7.0 | 12.0 | 0.00 | 0.00 | 0.00 | 95 | 1001.1 |
| 20260905034454 | 41 | 359 | 7.0 | 14.0 | 0.00 | 0.00 | 0.00 | 94 | 1001.2 |
| 20260905032455 | 41 | 5 | 8.0 | 13.0 | 0.00 | 0.00 | 0.00 | 95 | 1001.1 |
| 20260905030454 | 41 | 10 | 10.0 | 16.0 | 0.00 | 0.00 | 0.00 | 93 | 1001.1 |
| 20260905024454 | 41 | 11 | 11.0 | 17.0 | 0.00 | 0.00 | 0.00 | 92 | 1001.2 |
| 20260905022453 | 41 | 9 | 11.0 | 16.0 | 0.00 | 0.00 | 0.00 | 90 | 1001.2 |
| 20260905020125 | 42 | 2 | 10.0 | 18.0 | 0.00 | 0.00 | 0.00 | 85 | 1001.3 |
| 20260905014454 | 42 | 1 | 9.0 | 16.0 | 0.00 | 0.00 | 0.00 | 79 | 1001.3 |
| 20260905012453 | 43 | 5 | 12.0 | 19.0 | 0.00 | 0.00 | 0.00 | 79 | 1001.3 |